Temperature
14 14 14 14 14 13 13 13 13 13 13 13 13 13 13 13 13 13 13 13 13 13 13 13 13 13 13 13 13 13 14 14 13 13 13 13 13 13 13 13 13 13 13
13 13 13 13 13 13 13 13 13 13 13 13 13 13 13 13 13 13 13 13 13 13 13 13 13 13 13 13 13 13 13 13 13 13 13 13 13 13 13 13 13 13 13
13 13 13 13 13 13 13 13 12 13 13 13 13 13 13 12 12 12 12 12 12 12 12 12 12 12 12 12 13 13 13 13 13 13 13 13 13 13 13 13 13 13 13
12 12 12 12 12 12 12 12 12 12 12 12 12 12 12 12 12 12 12 12 12 12 12 12 12 12 12 12 12 12 12 12 12 12 13 13 13 13 13 13 13 13 13
12 12 12 12 12 12 12 12 12 12 12 12 12 12 12 12 12 12 12 11 11 11 11 11 12 12 12 12 12 12 12 12 12 12 12 12 12 12 12 12 12 12 13
11 11 11 11 11 11 11 11 11 11 11 11 11 11 11 11 11 11 11 11 11 11 11 11 11 11 11 11 11 11 11 11 11 11 11 12 12 12 12 12 12 12 12
10 10 10 11 11 11 11 11 11 11 11 11 11 11 11 11 11 10 10 10 10 10 10 10 10 11 11 11 11 11 11 11 11 11 11 11 11 11 11 11 11 12 12
10 10 10 10 10 10 10 10 10 10 10 9 9 9 9 10 10 10 10 10 10 10 10 10 10 10 10 10 10 10 10 10 10 10 10 10 10 10 11 11 11 11 11
9 9 9 9 9 9 9 9 9 9 9 9 8 8 8 8 8 9 9 9 9 9 9 9 9 9 9 9 9 9 9 9 9 9 9 9 9 10 10 10 10 10 10
9 9 9 9 9 9 9 9 8 8 8 8 8 7 7 7 7 7 8 8 8 8 8 8 8 8 8 8 8 8 9 9 9 9 9 9 9 9 9 9 10 10 10
8 8 8 8 8 8 8 8 8 8 8 7 7 7 7 6 6 6 7 7 8 8 7 8 8 8 8 8 8 8 8 8 8 8 8 8 8 8 9 9 9 9 9
8 8 8 8 8 8 8 7 7 7 7 7 7 6 6 6 6 6 6 6 6 7 7 7 7 7 7 7 7 7 7 7 7 7 7 7 8 8 8 8 8 8 8
8 7 7 7 7 7 7 7 7 7 6 6 6 6 6 5 5 5 5 5 5 6 6 6 6 6 6 6 6 6 6 7 6 6 6 7 7 7 7 7 7 7 8
7 7 7 7 7 7 6 6 6 6 6 6 6 5 5 5 5 5 4 4 4 4 5 5 5 5 5 5 5 6 6 6 6 6 6 6 6 6 6 6 6 6 6
7 6 6 6 6 6 6 6 6 6 5 5 5 5 5 5 4 4 4 4 3 3 3 4 4 5 4 5 5 5 5 5 5 5 5 5 5 5 5 5 5 6 6
6 6 6 6 6 6 5 5 5 5 5 5 5 5 4 4 4 4 4 3 3 3 2 3 3 4 4 4 4 4 4 4 4 4 4 4 4 4 4 4 4 4 5
6 6 6 5 5 5 5 5 5 5 5 5 4 4 4 4 4 3 3 3 3 2 2 3 3 3 3 3 3 3 3 3 3 3 3 3 3 3 3 3 3 4 4
6 5 5 5 5 5 5 4 4 4 4 4 4 4 4 3 3 3 3 3 2 2 2 2 2 2 2 2 2 2 3 3 3 3 2 2 2 2 2 2 2 3 3
5 5 5 5 5 4 4 4 4 4 4 4 3 3 3 3 3 2 2 2 2 2 1 1 1 1 2 1 2 2 2 2 2 2 2 2 2 1 1 1 2 2 2
5 5 5 4 4 4 4 4 3 3 3 3 3 3 3 2 2 2 2 1 1 1 1 0 0 1 1 1 1 1 2 2 2 1 1 1 1 1 1 1 1 1 1
5 4 4 4 4 3 3 3 3 3 3 2 2 2 2 2 1 1 1 0 0 -0 -0 -0 -0 -0 -0 -0 -0 -0 -0 0 1 1 1 1 0 0 0 0 0 0 -0
4 4 4 4 3 3 3 3 2 2 2 2 2 2 1 1 1 0 -0 -0 -1 -1 -1 -1 -1 -1 -1 -1 -2 -2 -2 -1 -1 -1 -1 -0 -1 -1 -1 -1 -1 -1 -1
4 4 3 3 3 3 2 2 2 2 2 1 1 1 1 0 -0 -0 -1 -1 -1 -1 -2 -2 -2 -2 -2 -2 -3 -2 -2 -2 -2 -2 -2 -1 -1 -1 -1 -1 -1 -2 -2
3 3 3 3 2 2 2 1 1 1 1 1 1 0 0 -0 -1 -1 -1 -1 -1 -2 -2 -2 -3 -3 -3 -3 -3 -4 -4 -3 -3 -2 -3 -3 -2 -2 -2 -2 -2 -2 -2
3 3 2 2 2 2 1 1 1 0 0 0 -0 -0 -1 -1 -1 -2 -2 -2 -2 -2 -3 -3 -3 -3 -3 -4 -4 -4 -4 -4 -4 -3 -4 -4 -4 -3 -2 -2 -2 -3 -3
3 2 2 2 2 1 1 0 -0 -0 -0 -0 -1 -1 -1 -2 -2 -3 -3 -3 -3 -3 -3 -3 -3 -3 -4 -4 -4 -4 -5 -5 -5 -5 -5 -5 -5 -5 -5 -3 -3 -3 -3
Wind_Speed
3 3 3 4 4 5 4 4 4 4 4 5 5 5 5 6 7 7 7 9 10 11 12 12 12 13 14 14 14 15 15 15 16 16 16 16 16 17 17 16 16 15 15
4 3 3 4 4 5 4 4 3 3 3 4 4 5 5 6 6 6 7 7 8 10 11 12 13 13 13 14 14 15 15 15 16 17 17 17 18 18 18 18 18 18 17
5 4 3 3 4 5 5 4 4 3 3 3 5 5 5 5 5 6 6 5 6 7 8 10 12 12 12 12 12 12 13 13 14 15 16 17 18 19 19 19 19 19 19
7 5 3 3 5 5 4 2 2 3 3 4 4 5 4 4 5 5 5 5 5 5 6 7 8 8 9 11 12 13 13 13 14 14 15 15 16 18 19 20 19 19 19
8 6 4 4 5 4 3 3 2 2 3 5 5 4 4 3 3 4 3 4 4 4 5 5 6 6 8 9 11 12 12 13 13 13 14 15 15 16 16 18 19 19 19
9 7 5 6 6 3 3 3 3 3 3 4 5 4 4 3 2 2 2 3 3 4 5 5 6 6 8 9 10 11 12 12 12 12 12 13 14 15 16 17 17 18 19
8 7 5 5 5 3 4 4 3 3 3 3 3 4 4 3 2 2 2 2 3 4 5 6 6 6 6 8 9 11 12 12 12 12 11 11 11 13 14 15 16 17 18
7 6 5 4 4 3 5 5 4 2 2 3 2 2 3 4 3 3 2 2 3 4 5 7 6 6 6 6 8 10 11 12 13 12 11 11 12 12 13 13 13 12 13
6 6 5 4 4 3 3 4 4 3 3 3 2 1 1 2 3 3 3 3 4 4 4 5 6 7 7 6 7 9 10 11 11 12 12 12 12 13 13 13 12 12 11
5 5 5 4 4 3 4 4 4 3 2 2 3 2 2 2 2 3 3 3 4 4 5 5 6 7 8 7 8 10 10 10 11 12 12 12 13 13 13 13 13 13 13
4 4 4 4 3 2 3 3 4 3 2 2 2 2 2 2 2 2 4 4 4 3 3 4 4 5 8 8 8 10 10 10 11 11 12 12 13 13 13 13 13 13 13
2 3 3 3 3 2 2 2 2 3 3 2 2 1 1 2 2 2 4 5 5 4 3 3 3 5 7 8 9 11 10 10 11 11 11 11 12 12 12 12 12 12 12
2 3 2 2 2 2 2 2 2 2 2 2 2 2 2 2 2 2 4 4 4 4 2 2 2 4 6 8 9 11 10 11 11 11 11 11 11 12 12 12 12 12 12
3 2 2 2 3 3 2 2 1 2 2 2 2 2 2 2 2 2 2 3 5 4 2 2 2 4 7 8 10 11 10 12 11 11 11 11 11 11 11 11 11 12 12
2 2 2 2 2 2 1 1 1 1 2 2 2 2 2 2 2 2 2 2 3 4 4 2 2 4 7 8 10 10 10 11 11 11 11 11 11 12 11 11 12 12 12
2 2 2 2 1 1 1 1 1 1 1 2 2 2 2 2 2 2 1 2 2 3 4 2 2 4 6 7 10 10 9 11 11 11 11 11 11 12 12 11 12 12 13
3 3 3 2 2 1 1 0 1 1 1 2 2 2 2 2 2 2 2 2 2 2 4 4 3 4 4 5 7 9 8 8 9 12 12 12 12 11 11 12 12 13 13
3 3 3 2 2 2 1 1 1 1 1 2 2 2 2 2 2 2 2 2 2 2 3 5 4 3 4 5 5 6 7 8 9 11 12 12 11 12 12 13 13 13 13
4 3 3 3 3 3 2 2 2 2 2 3 2 2 2 2 2 2 2 2 2 2 2 3 4 3 3 4 5 5 6 5 8 10 11 11 12 13 13 13 13 13 13
4 4 4 4 4 3 3 3 2 2 2 2 2 2 3 3 3 3 2 2 2 2 2 2 3 3 3 4 3 5 6 5 6 7 9 10 12 13 13 14 13 13 13
5 5 4 4 4 4 4 4 3 3 2 2 2 2 2 3 3 2 2 2 2 2 2 3 3 3 3 4 5 4 6 6 5 3 5 6 7 7 9 12 13 13 13
5 5 5 5 5 4 6 7 5 3 3 3 3 2 3 3 3 4 4 3 3 2 2 2 3 4 4 4 4 5 5 6 5 3 5 7 5 5 6 8 13 15 14
5 5 5 5 5 6 8 7 7 4 3 3 3 3 2 2 2 1 2 4 4 5 4 2 3 3 4 4 5 5 5 6 6 5 5 6 4 5 6 11 15 14 13
5 5 5 5 5 6 8 8 7 4 3 3 3 4 3 3 2 2 1 1 2 3 3 2 1 3 3 4 3 4 5 6 6 4 3 5 5 5 7 9 13 13 13
5 5 5 6 6 6 8 8 7 3 3 3 3 3 4 3 5 4 1 1 2 3 3 4 4 5 7 7 6 3 4 5 5 4 3 3 4 6 7 6 8 12 15
6 5 5 5 6 6 8 9 8 3 3 3 3 3 4 5 5 4 2 2 3 3 2 3 4 5 5 6 7 3 3 4 4 4 3 3 4 6 5 4 4 7 11
Wind_Direction
27 14 6 2 354 350 341 333 328 321 313 307 301 295 290 286 281 276 275 271 265 264 265 262 259 257 254 252 251 252 251 250 250 251 250 248 246 245 245 246 246 247 248
35 21 10 5 357 348 337 329 326 317 307 309 304 300 291 290 284 282 280 282 279 274 270 269 267 266 264 263 260 260 260 259 258 257 256 253 251 249 248 248 247 247 248
32 30 20 5 351 349 351 350 347 339 331 323 308 301 295 292 290 285 285 284 289 290 283 280 278 276 274 274 273 270 269 267 266 265 264 261 257 253 252 250 249 248 248
32 30 20 357 352 359 360 348 347 334 328 321 309 302 298 297 295 292 294 297 298 296 296 297 294 292 289 283 281 279 278 276 273 272 272 270 266 262 258 255 252 251 251
28 27 17 358 358 5 4 349 348 330 319 321 307 300 303 298 293 306 314 319 323 323 318 316 309 303 299 296 294 292 289 286 283 278 275 273 271 270 269 266 258 253 252
25 23 19 7 8 12 4 351 330 324 309 312 308 309 302 298 304 318 319 347 355 348 341 333 324 312 308 305 305 302 301 299 294 288 283 280 279 277 275 272 269 260 255
26 27 21 10 12 17 3 353 339 334 339 339 337 326 319 318 339 344 345 358 1 349 344 338 332 324 319 314 313 310 308 304 301 297 295 293 289 283 280 278 273 268 263
24 28 27 12 9 13 12 8 3 350 341 359 354 331 330 332 348 342 345 357 345 354 355 343 336 329 323 318 317 320 316 310 307 307 303 298 294 291 289 286 282 278 270
28 29 27 22 10 16 8 358 1 3 331 328 350 335 323 298 315 314 342 354 353 349 341 345 341 330 326 329 325 326 324 320 315 310 308 309 306 298 293 291 288 288 284
17 23 19 17 14 12 7 352 6 350 337 328 325 332 292 278 285 307 316 341 348 348 345 344 350 349 349 344 338 340 339 333 324 321 319 315 313 310 305 301 300 295 290
1 8 10 13 11 2 356 352 352 353 347 334 328 319 310 303 277 273 294 316 329 330 334 332 348 359 356 355 351 348 346 339 329 325 323 321 318 319 316 313 308 304 299
330 343 355 360 358 351 344 340 342 349 347 345 338 330 312 300 303 286 284 302 308 307 322 336 353 357 359 359 353 352 351 348 339 332 329 328 328 325 321 318 315 312 308
297 305 323 330 331 330 336 347 353 351 348 341 334 325 325 307 303 288 286 294 295 294 302 339 348 358 359 354 349 349 349 348 343 339 334 332 331 329 325 322 320 318 314
255 274 288 303 318 324 330 348 352 334 345 344 340 334 320 324 326 312 291 295 299 293 289 302 331 1 355 349 350 350 345 346 343 344 343 341 338 335 329 326 324 325 322
246 253 266 288 305 314 323 343 358 333 339 330 324 328 320 320 326 322 317 292 276 287 289 305 334 346 350 350 350 350 344 344 347 347 346 347 346 343 338 335 330 325 320
240 239 254 261 274 294 336 15 347 336 346 323 315 331 326 322 327 339 331 320 286 265 272 303 314 325 340 347 348 348 342 345 348 346 344 344 343 342 338 338 336 333 330
229 231 235 241 253 264 270 277 299 324 322 319 320 320 319 322 318 329 326 315 308 288 275 294 305 320 332 337 336 342 346 345 345 344 343 344 344 345 345 344 340 336 332
226 224 221 225 238 243 243 230 250 267 263 279 293 305 307 315 313 312 309 305 299 288 269 287 306 317 320 326 328 333 341 345 340 340 341 342 345 347 346 343 340 337 333
223 220 215 221 229 231 231 235 231 247 253 258 263 269 279 289 292 296 297 295 297 307 286 284 300 309 313 326 331 331 333 334 335 337 339 341 342 340 338 336 335 333 331
218 221 222 223 226 227 226 225 222 238 254 266 266 266 266 258 258 269 282 284 292 302 303 299 300 307 311 322 333 330 326 332 327 332 338 336 335 335 333 332 330 329 327
219 216 218 226 229 226 226 215 214 222 227 254 273 279 279 280 278 282 292 292 298 295 302 302 303 310 319 335 333 322 318 321 313 325 325 322 323 321 325 327 328 325 323
221 215 217 222 228 235 237 230 214 206 213 227 252 273 286 297 306 322 330 339 335 309 296 291 300 306 310 313 310 317 319 324 315 329 328 311 312 310 314 318 322 323 323
217 219 220 219 229 237 239 239 231 202 206 221 232 247 269 283 303 303 338 349 349 341 331 305 292 295 299 306 309 313 313 308 295 308 318 300 308 304 307 315 319 319 322
215 218 222 221 227 238 237 236 231 209 209 224 231 231 235 251 262 263 262 313 320 326 326 332 276 283 292 295 292 300 301 304 292 298 310 292 305 302 309 309 316 322 325
220 218 217 216 222 238 235 231 224 193 210 232 243 240 230 233 257 271 244 272 298 306 325 336 330 330 334 339 343 343 330 325 313 313 332 312 309 312 304 297 309 321 323
222 218 223 219 218 229 233 230 223 195 213 230 241 247 244 236 248 265 233 237 271 282 305 327 340 348 352 349 353 357 322 312 310 307 327 329 311 326 315 292 292 306 310
Height
1536 1535 1535 1534 1534 1533 1532 1532 1531 1531 1530 1530 1529 1528 1528 1528 1528 1527 1527 1527 1527 1527 1527 1527 1527 1527 1527 1527 1527 1527 1527 1527 1527 1527 1527 1527 1527 1527 1527 1527 1527 1527 1526
1534 1533 1533 1532 1532 1531 1530 1529 1529 1528 1528 1527 1526 1526 1525 1524 1524 1524 1524 1524 1524 1524 1524 1524 1524 1523 1523 1523 1523 1523 1523 1522 1522 1523 1523 1523 1523 1523 1523 1523 1523 1523 1523
1531 1531 1531 1530 1529 1529 1528 1527 1526 1526 1525 1524 1523 1522 1522 1521 1521 1520 1520 1520 1520 1520 1520 1519 1519 1519 1519 1519 1519 1519 1518 1518 1518 1518 1518 1518 1518 1518 1518 1518 1518 1518 1518
1529 1529 1528 1528 1527 1526 1525 1525 1524 1523 1522 1521 1520 1519 1518 1518 1517 1516 1516 1516 1516 1515 1515 1515 1515 1515 1514 1514 1514 1514 1514 1514 1513 1513 1513 1513 1513 1513 1513 1513 1513 1513 1513
1526 1526 1526 1525 1525 1524 1523 1522 1521 1520 1519 1518 1517 1516 1515 1514 1513 1513 1512 1512 1512 1511 1511 1511 1510 1510 1510 1510 1509 1509 1509 1509 1509 1508 1508 1508 1508 1507 1507 1507 1508 1508 1508
1524 1524 1523 1523 1522 1521 1520 1519 1518 1517 1516 1515 1514 1513 1512 1511 1510 1510 1509 1509 1508 1508 1507 1506 1506 1505 1505 1505 1504 1504 1504 1504 1504 1503 1503 1503 1502 1502 1502 1501 1501 1502 1502
1523 1522 1521 1520 1519 1518 1517 1517 1516 1515 1514 1512 1511 1510 1509 1508 1507 1507 1507 1506 1505 1505 1504 1503 1502 1501 1500 1500 1499 1499 1499 1498 1498 1498 1498 1497 1497 1496 1496 1496 1496 1495 1495
1522 1520 1519 1518 1517 1516 1515 1514 1513 1512 1511 1510 1509 1507 1506 1506 1505 1504 1504 1503 1503 1502 1500 1499 1498 1497 1496 1495 1494 1494 1493 1493 1493 1492 1492 1492 1491 1491 1490 1490 1489 1489 1489
1520 1518 1517 1516 1515 1514 1513 1512 1511 1510 1509 1508 1507 1507 1506 1504 1502 1502 1501 1501 1500 1498 1497 1496 1494 1493 1492 1491 1490 1489 1488 1488 1487 1487 1487 1486 1486 1485 1485 1484 1484 1483 1483
1518 1517 1516 1514 1513 1512 1510 1509 1508 1507 1507 1506 1505 1505 1505 1503 1502 1499 1498 1498 1497 1495 1494 1493 1491 1489 1488 1486 1485 1484 1483 1483 1482 1482 1481 1481 1480 1479 1479 1478 1478 1477 1477
1516 1515 1514 1512 1511 1509 1508 1507 1506 1505 1504 1503 1502 1502 1501 1501 1500 1498 1495 1494 1493 1492 1491 1489 1487 1486 1484 1482 1481 1479 1478 1478 1477 1476 1476 1475 1474 1473 1473 1472 1472 1471 1471
1514 1513 1511 1510 1508 1507 1506 1505 1504 1503 1502 1501 1500 1499 1498 1497 1496 1495 1493 1491 1489 1488 1487 1486 1484 1482 1480 1478 1477 1475 1474 1473 1472 1471 1470 1469 1468 1467 1466 1466 1465 1465 1464
1511 1510 1509 1507 1506 1505 1503 1502 1501 1500 1499 1498 1497 1496 1495 1494 1493 1492 1491 1488 1486 1485 1484 1482 1481 1479 1477 1475 1473 1471 1470 1469 1467 1466 1465 1463 1462 1461 1460 1460 1459 1458 1457
1509 1507 1506 1504 1503 1502 1501 1499 1499 1497 1496 1495 1494 1493 1492 1491 1490 1489 1488 1486 1484 1482 1480 1479 1477 1475 1473 1471 1469 1467 1466 1464 1463 1461 1460 1458 1457 1455 1454 1453 1452 1451 1450
1505 1504 1503 1502 1500 1499 1498 1497 1496 1495 1494 1493 1491 1490 1489 1488 1486 1485 1484 1483 1483 1480 1477 1475 1474 1472 1470 1468 1466 1464 1462 1460 1458 1457 1455 1453 1452 1450 1449 1448 1446 1445 1444
1502 1501 1500 1499 1498 1497 1496 1494 1493 1492 1491 1490 1489 1487 1486 1484 1483 1482 1481 1480 1479 1477 1475 1472 1471 1469 1466 1464 1462 1460 1458 1456 1454 1452 1451 1449 1447 1446 1444 1443 1441 1440 1438
1499 1498 1497 1496 1495 1494 1493 1491 1490 1489 1488 1487 1485 1484 1483 1481 1480 1479 1477 1476 1475 1473 1471 1468 1467 1465 1463 1461 1459 1456 1454 1452 1450 1448 1446 1445 1443 1441 1439 1437 1436 1434 1433
1496 1495 1494 1493 1492 1491 1489 1488 1487 1486 1485 1484 1482 1481 1479 1478 1477 1475 1474 1472 1471 1469 1468 1465 1463 1461 1459 1457 1455 1453 1450 1448 1446 1444 1443 1441 1438 1436 1434 1432 1430 1429 1427
1492 1491 1490 1489 1488 1487 1486 1485 1484 1483 1481 1480 1479 1477 1476 1475 1473 1472 1470 1469 1467 1466 1464 1462 1459 1458 1456 1454 1451 1449 1447 1445 1442 1440 1438 1436 1434 1432 1430 1428 1425 1423 1422
1488 1487 1486 1485 1484 1483 1482 1482 1480 1479 1478 1477 1475 1474 1473 1471 1470 1468 1466 1465 1464 1462 1461 1459 1456 1454 1452 1450 1447 1445 1443 1440 1438 1436 1434 1432 1430 1428 1425 1423 1420 1418 1417
1484 1483 1482 1481 1480 1479 1478 1477 1476 1475 1474 1473 1472 1470 1469 1467 1466 1465 1463 1461 1460 1459 1457 1455 1453 1451 1449 1446 1444 1441 1439 1436 1434 1432 1429 1427 1425 1422 1420 1417 1415 1413 1411
1479 1479 1478 1477 1476 1475 1474 1473 1472 1471 1470 1469 1468 1467 1465 1464 1462 1461 1460 1458 1457 1455 1453 1452 1449 1448 1445 1444 1441 1439 1435 1432 1429 1428 1425 1422 1421 1417 1415 1412 1410 1408 1405
1474 1474 1473 1472 1472 1471 1470 1469 1468 1467 1466 1465 1464 1463 1461 1460 1459 1457 1456 1455 1453 1452 1451 1449 1447 1445 1443 1440 1438 1435 1433 1430 1427 1424 1421 1417 1416 1413 1410 1408 1406 1403 1401
1469 1469 1468 1468 1467 1466 1466 1465 1464 1463 1462 1461 1460 1458 1457 1456 1455 1454 1452 1451 1449 1448 1447 1445 1444 1442 1440 1437 1435 1433 1430 1427 1424 1421 1418 1414 1410 1408 1405 1403 1401 1399 1396
1464 1463 1463 1462 1462 1461 1461 1460 1459 1458 1457 1456 1456 1454 1453 1452 1451 1450 1449 1447 1445 1444 1443 1442 1440 1438 1436 1434 1432 1429 1427 1424 1419 1417 1415 1411 1407 1403 1399 1398 1396 1394 1392
1458 1458 1457 1457 1456 1456 1456 1455 1455 1454 1453 1452 1451 1450 1449 1448 1448 1446 1445 1443 1442 1441 1439 1438 1436 1435 1433 1431 1429 1426 1423 1421 1417 1414 1411 1409 1404 1401 1395 1392 1391 1389 1386